Weather in Novohuivynske

Ukraine / Zhytomyr Region     50°12′24″N   28°41′31″E
temp.,
°C
wind,
m/s
gust,
m/s
humid.,
%
clouds,
%
prec.,
mm/h
press.,
hPa
HPBL,
m
12 may, wed
wed1200:00+12ene39925 0.0 1017169
03:00+10e39969 0.0 1017289
06:00+10ese5109646 0.0 1017423
09:00+11e68670 0.0 1018825
12:00+12e796198 0.0 10171441
15:00+11e586792 0.0 10161185
18:00+12e476396 0.1 10151239
21:00+8ene2278100 0.1 101419
13 may, thu
thu1300:00+8ese248782 0.0 101392
03:00+7se2490100 0.0 1011107
06:00+5se3494100 0.0 101184
09:00+10sse5771100 0.0 1010612
12:00+15sse785494 0.0 10091609
15:00+11sse71276100 0.0 1009775
18:00+13sse61374100 0.1 1008922
21:00+12sse61283100 0.1 1008501
14 may, fri
fri1400:00+11se51294100 0.6 1007582
03:00+11se51190100 0.7 1007513
06:00+10sse51195100 1.5 1007468
09:00+12s468492 1.8 1007460
12:00+15ssw3474100 0.0 1007917
15:00+18ssw3366100 0.3 10071038
18:00+16sw5681100 1.4 1007488
21:00+12sw3896100 2.8 1008314
15 may, sat
sat1500:00+12wnw4996100 0.6 1008371
03:00+11w4897100 2.4 1009352
06:00+9w41094100 0.4 1011287
09:00+12w5880100 0.4 1011553
12:00+16wnw465916 0.0 10121383
15:00+18w455297 0.0 10111816
18:00+18nw015361 0.0 1011929
21:00+13ese22700 0.0 101215
16 may, sun
sun1600:00+11se33781 0.0 101239
03:00+10ese34795 0.0 101253
06:00+9ese378319 0.0 1012131
09:00+15ese5865100 0.0 1012431
12:00+19e6857100 0.0 10111057
15:00+21ese7955100 0.0 10101661
18:00+19e5970100 0.2 1009824
21:00+16ene4117799 0.3 1008363